Flag for Netherlands Weather past 2 weeks in Rotterdam, Netherlands

Now
54 °F

Clear.


Feels Like: 50 °F
Forecast: 49 / 62 °F
Wind: 13 mph from East

Location: Rotterdam Zestienhoven Airport


UV Index: 3 (Moderate)

Visibility: 5 mi


Pressure: 29.77 "Hg

Humidity: 82%

Dew point: 48 °F

Location of RotterdamLocation

Historic Weather in Rotterdam

°F

Rotterdam temperature yesterday

Maximum temperature yesterday: 59 °F (at 3:55 PM)
Minimum temperature yesterday: 39 °F (at 12:55 AM)
Average temperature yesterday: 50 °F

Past Weeks' High & Low Weather Summary

 TemperatureHumidityPressure
High68 °F (Apr 7, 3:25 PM)100% (Apr 7, 6:55 PM)30.45 "Hg (Apr 7, 6:55 PM)
Low32 °F (Apr 16, 6:55 AM)39% (Apr 16, 6:25 PM)29.68 "Hg (Apr 8, 1:55 AM)
Average51 °F77%30.09 "Hg
* Reported Apr 5 8:25 AM — Apr 20 8:55 AM, Rotterdam, Weather by CustomWeather, © 2014

Note: Actual official high and low records may vary slightly from our data, if they occured in-between our weather recording intervals... More about our weather records

Advertising

Historic Weather Conditions — Data for Previous 24 hours

 ConditionsComfort  
Time TempWeatherWind HumidityBarometerVisibility
8:55 AM
Apr 20
54 °FClear.13 mph82%29.80 "Hg5 mi
8:25 AM52 °FClear.10 mph82%29.80 "Hg5 mi
7:55 AM50 °FClear.10 mph88%29.80 "Hg4 mi
7:25 AM50 °FClear.10 mph88%29.80 "Hg5 mi
6:55 AM50 °FClear.10 mph88%29.80 "Hg5 mi
6:25 AM52 °FClear.9 mph82%29.80 "Hg5 mi
5:55 AM52 °FClear.8 mph82%29.83 "Hg5 mi
5:25 AM50 °FClear.9 mph88%29.83 "Hg4 mi
4:55 AM50 °FClear.9 mph88%29.83 "Hg4 mi
4:25 AM50 °FClear.9 mph88%29.86 "Hg4 mi
3:55 AM50 °FClear.8 mph88%29.86 "Hg4 mi
3:25 AM50 °FClear.10 mph88%29.86 "Hg4 mi
2:55 AM50 °FCool.10 mph88%29.89 "Hg4 mi
2:25 AM50 °FCool.10 mph88%29.89 "Hg4 mi
1:55 AM52 °FCool.9 mph82%29.89 "Hg5 mi
1:25 AM50 °FCool.10 mph88%29.92 "Hg5 mi
12:55 AM52 °FCool.10 mph82%29.92 "HgN/A
12:25 AM52 °FCool.13 mph82%29.92 "HgN/A
11:55 PM
Apr 19
52 °FCool.12 mph82%29.92 "HgN/A
11:25 PM54 °FCool.14 mph77%29.95 "HgN/A
10:55 PM54 °FCool.12 mph77%29.95 "HgN/A
10:25 PM54 °FCool.13 mph77%29.95 "HgN/A
9:55 PM55 °FCool.12 mph67%29.95 "HgN/A
9:25 PM55 °FCool.10 mph67%29.95 "HgN/A
8:55 PM55 °FCool.12 mph67%29.95 "HgN/A
8:25 PM57 °FCool.13 mph63%29.95 "HgN/A
7:55 PM57 °FCool.14 mph63%29.95 "HgN/A
7:25 PM59 °FRefreshingly cool.15 mph59%29.95 "HgN/A
6:55 PM59 °FRefreshingly cool.16 mph55%29.95 "HgN/A
6:25 PM59 °FRefreshingly cool.15 mph55%29.98 "HgN/A
5:55 PM59 °FRefreshingly cool.15 mph55%29.98 "HgN/A
5:25 PM59 °FRefreshingly cool.16 mph55%29.98 "HgN/A
4:55 PM59 °FRefreshingly cool.14 mph55%30.01 "HgN/A
4:25 PM59 °FRefreshingly cool.13 mph55%30.01 "HgN/A
3:55 PM59 °FRefreshingly cool.13 mph55%30.01 "HgN/A
3:25 PM57 °FCool.10 mph63%30.04 "HgN/A
2:55 PM57 °FRefreshingly cool.13 mph59%30.04 "HgN/A
2:25 PM55 °FPassing clouds.13 mph63%30.07 "HgN/A
1:55 PM55 °FPassing clouds.12 mph67%30.07 "HgN/A
1:25 PM54 °FScattered clouds.9 mph72%30.07 "HgN/A
12:55 PM52 °FScattered clouds.9 mph72%30.07 "HgN/A
12:25 PM50 °FBroken clouds.12 mph76%30.09 "HgN/A
11:55 AM48 °FCloudy.10 mph76%30.09 "HgN/A
11:25 AM46 °FOvercast.12 mph82%30.09 "HgN/A
10:55 AM45 °FOvercast.12 mph87%30.09 "HgN/A
10:25 AM46 °FOvercast.12 mph82%30.09 "HgN/A
9:55 AM46 °FMore clouds than sun.12 mph87%30.07 "HgN/A
9:25 AM46 °FMore clouds than sun.13 mph87%30.07 "HgN/A
Weather by CustomWeather, © 2014

See weather overview